Location: Unspecified
(52.8812°N, 0.0000°E)
Time: 21:39:09
(UTC+00:00)

ISS - Visible Passes

Search period start: 19 May 2019 00:00
Search period end: 29 May 2019 00:00
Orbit: 407 x 410 km, 51.6° (Epoch: 20 May)

Date Brightness Start Highest point End Pass type
(mag) Time Alt. Az. Time Alt. Az. Time Alt. Az.
19 May -4.0 00:04:40 10° W 00:07:59 72° S 00:11:17 10° E visible
19 May -3.4 01:41:13 10° W 01:44:22 40° SSW 01:47:30 10° SE visible
19 May -3.3 21:37:41 10° SW 21:40:45 36° SSE 21:43:50 10° E visible
19 May -4.0 23:13:48 10° W 23:17:06 71° S 23:20:25 10° E visible
20 May -3.7 00:50:20 10° W 00:53:34 52° SSW 00:56:48 10° ESE visible
20 May -2.3 02:27:20 10° W 02:29:39 18° SW 02:31:58 10° S visible
20 May -2.8 20:47:10 10° SSW 20:49:59 26° SSE 20:52:50 10° E visible
20 May -3.9 22:22:58 10° WSW 22:26:14 64° S 22:29:32 10° E visible
20 May -3.9 23:59:26 10° W 00:02:43 63° S 00:04:30 24° ESE visible
21 May -1.8 01:36:09 10° W 01:37:06 16° WSW 01:37:06 16° WSW visible
21 May -3.7 21:32:08 10° WSW 21:35:23 54° SSE 21:38:37 10° E visible
21 May -3.9 23:08:32 10° W 23:11:50 71° S 23:14:14 17° ESE visible
22 May -2.5 00:45:08 10° W 00:46:55 25° WSW 00:46:55 25° WSW visible
22 May -3.9 22:17:38 10° W 22:20:56 73° S 22:24:14 10° E visible
22 May -3.6 23:54:10 10° W 23:57:15 46° SSW 23:57:15 46° SSW visible
23 May -3.9 21:26:44 10° WSW 21:30:01 69° S 21:33:20 10° E visible
23 May -3.8 23:03:13 10° W 23:06:29 58° SSW 23:07:45 32° SE visible
24 May -1.4 00:40:04 10° W 00:40:27 12° W 00:40:27 12° W visible
24 May -3.9 22:12:17 10° W 22:15:35 67° S 22:18:18 14° ESE visible
24 May -2.5 23:48:56 10° W 23:51:00 25° WSW 23:51:00 25° WSW visible
25 May -3.9 21:21:21 10° W 21:24:39 72° S 21:27:57 10° E visible
25 May -3.3 22:57:54 10° W 23:01:02 40° SSW 23:01:37 36° S visible
26 May -3.6 22:06:55 10° W 22:10:09 52° SSW 22:12:14 19° SE visible
26 May -1.6 23:43:56 10° W 23:44:57 15° WSW 23:44:57 15° WSW visible
27 May -3.8 21:15:56 10° W 21:19:13 63° S 21:22:30 10° ESE visible
27 May -2.6 22:52:40 10° W 22:55:26 25° SSW 22:55:35 25° SSW visible
28 May -3.0 22:01:33 10° W 22:04:35 34° SSW 22:06:16 20° SSE visible
